Location: Rancho Del Sol Observatory
(38.7214°N, 120.6350°W)
Time: 21:17:45
(UTC-07:00)

Cosmos 2221 Rocket - Visible Passes

Search period start: 01 August 2015 00:00
Search period end: 11 August 2015 00:00
Orbit: 622 x 648 km, 82.5° (Epoch: 01 August)

Date Brightness Start Highest point End Pass type
(mag) Time Alt. Az. Time Alt. Az. Time Alt. Az.
05 Aug 7.0 05:16:14 10° ESE 05:17:29 11° E 05:19:02 10° ENE visible
06 Aug 6.2 05:36:04 10° SE 05:39:37 24° E 05:43:19 10° NE visible
09 Aug 6.4 05:05:28 10° SE 05:08:40 20° E 05:12:01 10° NE visible
10 Aug 5.1 05:26:38 10° SSE 05:30:52 41° E 05:35:10 10° NNE visible
